PROPCUBE 1 (FLORA)

Last updated on Sun Jun 21 2026 00:03:50 GMT+0000 (Coordinated Universal Time)

1 40976U 15058N 26171.35198918 .00001612 00000+0 16064-3 0 9995 2 40976 64.7742 285.4273 0130904 59.7091 301.6897 14.89233326116730
UTC large
Height (km)
Speed (km/s)
/
Latitude / Longitude
Inclination (degrees)
Orbital Period (minutes)
Azimuth
Elevation
Range (km)
Doppler Factor

Next 0 passes for location: London (51.5072 / 0.1276)

No passes found over London.
PROPCUBE 1 (FLORA)